Time,TemperatureF,DewpointF,PressureIn,WindDirection,WindDirectionDegrees,WindSpeedMPH,WindSpeedGustMPH,Humidity,HourlyPrecipIn,Conditions,Clouds,dailyrainin,SoftwareType,DateUTC
2013-05-23 00:00:00,74.7,67.0,29.94,SSW,196,0.0,0.0,77,0.00,,---,0.00,VWS V14.01,2013-05-23 04:00:00,
2013-05-23 00:01:00,74.7,67.0,29.95,SSW,196,0.0,0.0,77,0.00,,---,0.00,VWS V14.01,2013-05-23 04:01:00,
2013-05-23 00:06:00,74.7,67.0,29.95,SSW,196,0.0,0.0,77,0.00,,---,0.00,VWS V14.01,2013-05-23 04:06:00,
2013-05-23 00:11:00,74.7,67.0,29.95,SSW,196,0.0,0.0,77,0.00,,---,0.00,VWS V14.01,2013-05-23 04:11:00,
2013-05-23 00:16:00,74.7,67.0,29.95,SSW,196,0.0,0.0,77,0.00,,---,0.00,VWS V14.01,2013-05-23 04:16:00,
2013-05-23 00:21:00,74.7,67.0,29.95,SSW,196,0.0,0.0,77,0.00,,---,0.00,VWS V14.01,2013-05-23 04:21:00,
2013-05-23 00:26:00,74.7,67.0,29.95,SSW,196,0.0,0.0,77,0.00,,---,0.00,VWS V14.01,2013-05-23 04:26:00,
2013-05-23 00:30:00,74.7,67.0,29.94,SSW,196,0.0,0.0,77,0.00,,---,0.00,VWS V14.01,2013-05-23 04:30:00,
2013-05-23 00:31:00,74.7,67.0,29.95,SSW,196,0.0,0.0,77,0.00,,---,0.00,VWS V14.01,2013-05-23 04:31:00,
2013-05-23 00:36:00,74.7,67.0,29.95,SSW,196,0.0,0.0,77,0.00,,---,0.00,VWS V14.01,2013-05-23 04:36:00,
2013-05-23 00:41:00,73.1,66.6,29.95,SSW,207,0.0,0.0,80,0.00,,---,0.00,VWS V14.01,2013-05-23 04:41:00,
2013-05-23 00:46:00,73.0,66.5,29.95,SSW,207,0.0,0.0,80,0.00,,---,0.00,VWS V14.01,2013-05-23 04:46:00,
2013-05-23 00:51:00,73.0,66.5,29.95,SSW,207,0.0,0.0,80,0.00,,---,0.00,VWS V14.01,2013-05-23 04:51:00,
2013-05-23 00:56:00,73.1,66.6,29.95,SSW,207,0.0,0.0,80,0.00,,---,0.00,VWS V14.01,2013-05-23 04:56:00,
2013-05-23 01:00:00,74.7,67.0,29.95,SSW,196,0.0,0.0,77,0.00,,---,0.00,VWS V14.01,2013-05-23 05:00:00,
2013-05-23 01:01:00,73.1,66.9,29.94,SSW,207,0.0,0.0,81,0.00,,---,0.00,VWS V14.01,2013-05-23 05:01:00,
2013-05-23 01:06:00,73.1,66.6,29.94,SSW,207,0.0,0.0,80,0.00,,---,0.00,VWS V14.01,2013-05-23 05:06:00,
2013-05-23 01:11:00,73.0,66.5,29.94,SSW,207,0.0,0.0,80,0.00,,---,0.00,VWS V14.01,2013-05-23 05:11:00,
2013-05-23 01:16:00,72.9,66.4,29.94,SSW,207,0.0,0.0,80,0.00,,---,0.00,VWS V14.01,2013-05-23 05:16:00,
2013-05-23 01:21:00,72.7,66.2,29.94,SSW,207,0.0,0.0,80,0.00,,---,0.00,VWS V14.01,2013-05-23 05:21:00,
2013-05-23 01:26:00,72.7,66.2,29.94,SSW,207,0.0,0.0,80,0.00,,---,0.00,VWS V14.01,2013-05-23 05:26:00,
2013-05-23 01:30:00,72.7,66.5,29.93,SSW,207,0.0,0.0,81,0.00,,---,0.00,VWS V14.01,2013-05-23 05:30:00,
2013-05-23 01:35:00,72.7,66.5,29.93,SSW,207,0.0,0.0,81,0.00,,---,0.00,VWS V14.01,2013-05-23 05:35:00,
2013-05-23 01:40:00,72.6,66.4,29.93,SSW,207,0.0,0.0,81,0.00,,---,0.00,VWS V14.01,2013-05-23 05:40:00,
2013-05-23 01:45:00,72.5,66.3,29.94,SSW,207,0.0,0.0,81,0.00,,---,0.00,VWS V14.01,2013-05-23 05:45:00,
2013-05-23 01:50:00,72.5,66.3,29.94,SSW,208,0.0,0.0,81,0.00,,---,0.00,VWS V14.01,2013-05-23 05:50:00,
2013-05-23 01:55:00,72.5,66.3,29.94,SSW,208,0.0,0.0,81,0.00,,---,0.00,VWS V14.01,2013-05-23 05:55:00,
2013-05-23 02:00:00,72.5,66.3,29.93,SSW,208,0.0,0.0,81,0.00,,---,0.00,VWS V14.01,2013-05-23 06:00:00,
2013-05-23 02:05:00,72.5,66.3,29.93,SSW,208,0.0,0.0,81,0.00,,---,0.00,VWS V14.01,2013-05-23 06:05:00,
2013-05-23 02:10:00,72.4,66.2,29.93,SSW,208,0.0,0.0,81,0.00,,---,0.00,VWS V14.01,2013-05-23 06:10:00,
2013-05-23 02:15:00,72.4,66.2,29.93,SSW,208,0.0,0.0,81,0.00,,---,0.00,VWS V14.01,2013-05-23 06:15:00,
2013-05-23 02:20:00,72.4,66.2,29.93,SSW,208,0.0,0.0,81,0.00,,---,0.00,VWS V14.01,2013-05-23 06:20:00,
2013-05-23 02:25:00,72.3,66.2,29.92,SSW,208,0.0,0.0,81,0.00,,---,0.00,VWS V14.01,2013-05-23 06:25:00,
2013-05-23 02:30:00,72.2,66.1,29.93,SSW,208,0.0,0.0,81,0.00,,---,0.00,VWS V14.01,2013-05-23 06:30:00,
2013-05-23 02:35:00,72.1,65.9,29.93,SSW,208,0.0,0.0,81,0.00,,---,0.00,VWS V14.01,2013-05-23 06:35:00,
2013-05-23 02:40:00,72.0,65.9,29.92,SSW,208,0.0,0.0,81,0.00,,---,0.00,VWS V14.01,2013-05-23 06:40:00,
2013-05-23 02:45:00,71.9,65.8,29.92,SSW,208,0.0,0.0,81,0.00,,---,0.00,VWS V14.01,2013-05-23 06:45:00,
2013-05-23 02:50:00,71.8,65.7,29.92,SSW,208,0.0,0.0,81,0.00,,---,0.00,VWS V14.01,2013-05-23 06:50:00,
2013-05-23 02:55:00,71.8,65.7,29.92,SSW,208,0.0,0.0,81,0.00,,---,0.00,VWS V14.01,2013-05-23 06:55:00,
2013-05-23 03:00:00,71.6,65.5,29.92,SSW,208,0.0,0.0,81,0.00,,---,0.00,VWS V14.01,2013-05-23 07:00:00,
2013-05-23 03:05:00,71.6,65.8,29.92,SSW,208,0.0,0.0,82,0.00,,---,0.00,VWS V14.01,2013-05-23 07:05:00,
2013-05-23 03:10:00,71.6,65.8,29.92,SSW,208,0.0,0.0,82,0.00,,---,0.00,VWS V14.01,2013-05-23 07:10:00,
2013-05-23 03:15:00,71.7,65.9,29.92,SSW,208,0.0,0.0,82,0.00,,---,0.00,VWS V14.01,2013-05-23 07:15:00,
2013-05-23 03:20:00,71.7,65.9,29.92,SSW,208,0.0,0.0,82,0.00,,---,0.00,VWS V14.01,2013-05-23 07:20:00,
2013-05-23 03:25:00,71.7,65.9,29.92,SSW,208,0.0,0.0,82,0.00,,---,0.00,VWS V14.01,2013-05-23 07:25:00,
2013-05-23 03:30:00,71.5,65.4,29.92,SSW,208,0.0,0.0,81,0.00,,---,0.00,VWS V14.01,2013-05-23 07:30:00,
2013-05-23 03:35:00,71.3,65.5,29.92,SSW,208,0.0,0.0,82,0.00,,---,0.00,VWS V14.01,2013-05-23 07:35:00,
2013-05-23 03:40:00,71.2,65.4,29.92,SSW,208,0.0,0.0,82,0.00,,---,0.00,VWS V14.01,2013-05-23 07:40:00,
2013-05-23 03:45:00,71.5,65.7,29.92,SSW,208,0.0,0.0,82,0.00,,---,0.00,VWS V14.01,2013-05-23 07:45:00,
2013-05-23 03:50:00,71.7,65.9,29.92,SSW,208,0.0,0.0,82,0.00,,---,0.00,VWS V14.01,2013-05-23 07:50:00,
2013-05-23 03:55:00,71.9,66.1,29.92,SSW,208,0.0,0.0,82,0.00,,---,0.00,VWS V14.01,2013-05-23 07:55:00,
2013-05-23 04:00:00,71.7,65.9,29.92,SSW,208,0.0,0.0,82,0.00,,---,0.00,VWS V14.01,2013-05-23 08:00:00,
2013-05-23 04:05:00,71.5,65.7,29.92,SSW,208,0.0,0.0,82,0.00,,---,0.00,VWS V14.01,2013-05-23 08:05:00,
2013-05-23 04:10:00,71.5,65.7,29.92,SSW,208,0.0,0.0,82,0.00,,---,0.00,VWS V14.01,2013-05-23 08:10:00,
2013-05-23 04:15:00,71.4,65.6,29.92,SSW,208,0.0,0.0,82,0.00,,---,0.00,VWS V14.01,2013-05-23 08:15:00,
2013-05-23 04:20:00,71.1,65.3,29.92,SSW,208,0.0,0.0,82,0.00,,---,0.00,VWS V14.01,2013-05-23 08:20:00,
2013-05-23 04:25:00,71.0,65.2,29.92,SSW,208,0.0,0.0,82,0.00,,---,0.00,VWS V14.01,2013-05-23 08:25:00,
2013-05-23 04:30:00,71.1,65.3,29.93,SSW,208,0.0,0.0,82,0.00,,---,0.00,VWS V14.01,2013-05-23 08:30:00,
2013-05-23 04:35:00,71.2,65.4,29.92,SSW,208,0.0,0.0,82,0.00,,---,0.00,VWS V14.01,2013-05-23 08:35:00,
2013-05-23 04:40:00,71.2,65.4,29.92,SSW,208,0.0,0.0,82,0.00,,---,0.00,VWS V14.01,2013-05-23 08:40:00,
2013-05-23 04:45:00,71.3,65.9,29.92,SSW,208,0.0,0.0,83,0.00,,---,0.00,VWS V14.01,2013-05-23 08:45:00,
2013-05-23 04:50:00,71.3,65.9,29.92,SSW,208,0.0,0.0,83,0.00,,---,0.00,VWS V14.01,2013-05-23 08:50:00,
2013-05-23 04:55:00,71.1,65.3,29.92,SSW,208,0.0,0.0,82,0.00,,---,0.00,VWS V14.01,2013-05-23 08:55:00,
2013-05-23 05:00:00,71.0,65.2,29.92,SSW,208,0.0,0.0,82,0.00,,---,0.00,VWS V14.01,2013-05-23 09:00:00,
2013-05-23 05:05:00,70.9,65.1,29.93,SSW,208,0.0,0.0,82,0.00,,---,0.00,VWS V14.01,2013-05-23 09:05:00,
2013-05-23 05:10:00,70.9,65.1,29.92,SSW,208,0.0,0.0,82,0.00,,---,0.00,VWS V14.01,2013-05-23 09:10:00,
2013-05-23 05:15:00,70.9,65.1,29.92,SSW,208,0.0,0.0,82,0.00,,---,0.00,VWS V14.01,2013-05-23 09:15:00,
2013-05-23 05:20:00,70.8,65.0,29.92,SSW,208,0.0,0.0,82,0.00,,---,0.00,VWS V14.01,2013-05-23 09:20:00,
2013-05-23 05:25:00,70.7,64.9,29.92,SSW,208,0.0,0.0,82,0.00,,---,0.00,VWS V14.01,2013-05-23 09:25:00,
2013-05-23 05:30:00,70.6,64.8,29.92,SSW,208,0.0,0.0,82,0.00,,---,0.00,VWS V14.01,2013-05-23 09:30:00,
2013-05-23 05:35:00,70.6,64.8,29.92,SSW,208,0.0,0.0,82,0.00,,---,0.00,VWS V14.01,2013-05-23 09:35:00,
2013-05-23 05:40:00,70.6,65.2,29.92,SSW,208,0.0,0.0,83,0.00,,---,0.00,VWS V14.01,2013-05-23 09:40:00,
2013-05-23 05:45:00,70.6,65.2,29.93,SSW,208,0.0,0.0,83,0.00,,---,0.00,VWS V14.01,2013-05-23 09:45:00,
2013-05-23 05:50:00,70.4,64.7,29.93,SSW,208,0.0,0.0,82,0.00,,---,0.00,VWS V14.01,2013-05-23 09:50:00,
2013-05-23 05:55:00,70.4,64.7,29.93,SSW,208,0.0,0.0,82,0.00,,---,0.00,VWS V14.01,2013-05-23 09:55:00,
2013-05-23 06:00:00,70.3,64.6,29.93,SSW,208,0.0,0.0,82,0.00,,---,0.00,VWS V14.01,2013-05-23 10:00:00,
2013-05-23 06:05:00,70.3,64.6,29.93,SSW,208,0.0,0.0,82,0.00,,---,0.00,VWS V14.01,2013-05-23 10:05:00,
2013-05-23 06:10:00,70.1,64.4,29.93,SSW,208,0.0,0.0,82,0.00,,---,0.00,VWS V14.01,2013-05-23 10:10:00,
2013-05-23 06:15:00,70.2,64.8,29.93,SSW,208,0.0,0.0,83,0.00,,---,0.00,VWS V14.01,2013-05-23 10:15:00,
2013-05-23 06:20:00,70.3,64.9,29.94,SSW,208,0.0,0.0,83,0.00,,---,0.00,VWS V14.01,2013-05-23 10:20:00,
2013-05-23 06:25:00,70.4,65.0,29.94,SSW,208,0.0,0.0,83,0.00,,---,0.00,VWS V14.01,2013-05-23 10:25:00,
2013-05-23 06:30:00,70.4,65.0,29.93,SSW,208,0.0,0.0,83,0.00,,---,0.00,VWS V14.01,2013-05-23 10:30:00,
2013-05-23 06:35:00,70.6,65.2,29.93,SSW,208,0.0,0.0,83,0.00,,---,0.00,VWS V14.01,2013-05-23 10:35:00,
2013-05-23 06:40:00,70.6,65.2,29.94,SSW,208,0.0,0.0,83,0.00,,---,0.00,VWS V14.01,2013-05-23 10:40:00,
2013-05-23 06:45:00,70.5,65.1,29.94,SSW,208,0.0,0.0,83,0.00,,---,0.00,VWS V14.01,2013-05-23 10:45:00,
2013-05-23 06:50:00,70.6,65.2,29.94,SSW,208,0.0,0.0,83,0.00,,---,0.00,VWS V14.01,2013-05-23 10:50:00,
2013-05-23 06:55:00,70.6,65.2,29.94,SSW,208,0.0,0.0,83,0.00,,---,0.00,VWS V14.01,2013-05-23 10:55:00,
2013-05-23 07:00:00,70.7,65.3,29.94,SSW,208,0.0,0.0,83,0.00,,---,0.00,VWS V14.01,2013-05-23 11:00:00,
2013-05-23 07:05:00,70.7,65.3,29.94,SSW,208,0.0,0.0,83,0.00,,---,0.00,VWS V14.01,2013-05-23 11:05:00,
2013-05-23 07:10:00,70.8,65.4,29.93,SSW,208,0.0,0.0,83,0.00,,---,0.00,VWS V14.01,2013-05-23 11:10:00,
2013-05-23 07:15:00,71.1,65.7,29.93,SSW,208,0.0,0.0,83,0.00,,---,0.00,VWS V14.01,2013-05-23 11:15:00,
2013-05-23 07:20:00,71.5,66.4,29.93,SSW,208,0.0,0.0,84,0.00,,---,0.00,VWS V14.01,2013-05-23 11:20:00,
2013-05-23 07:25:00,72.0,66.9,29.94,SSW,208,0.0,0.0,84,0.00,,---,0.00,VWS V14.01,2013-05-23 11:25:00,
2013-05-23 07:30:00,72.4,67.3,29.93,SSW,207,0.0,0.0,84,0.00,,---,0.00,VWS V14.01,2013-05-23 11:30:00,
2013-05-23 07:35:00,72.7,67.6,29.93,SSW,207,0.0,0.0,84,0.00,,---,0.00,VWS V14.01,2013-05-23 11:35:00,
2013-05-23 07:40:00,72.6,67.2,29.93,SSW,207,0.0,0.0,83,0.00,,---,0.00,VWS V14.01,2013-05-23 11:40:00,
2013-05-23 07:45:00,73.3,68.2,29.93,SSW,207,0.0,0.0,84,0.00,,---,0.00,VWS V14.01,2013-05-23 11:45:00,
2013-05-23 07:50:00,73.2,67.7,29.94,SSW,209,0.0,0.0,83,0.00,,---,0.00,VWS V14.01,2013-05-23 11:50:00,
2013-05-23 07:55:00,73.0,67.2,29.93,SSW,209,0.0,0.0,82,0.00,,---,0.00,VWS V14.01,2013-05-23 11:55:00,
2013-05-23 08:00:00,73.0,67.2,29.93,SSW,209,0.0,0.0,82,0.00,,---,0.00,VWS V14.01,2013-05-23 12:00:00,
2013-05-23 08:05:00,72.9,67.1,29.93,SSW,211,0.0,0.0,82,0.00,,---,0.00,VWS V14.01,2013-05-23 12:05:00,
2013-05-23 08:10:00,72.8,66.6,29.93,SSW,211,0.0,0.0,81,0.00,,---,0.00,VWS V14.01,2013-05-23 12:10:00,
2013-05-23 08:15:00,73.1,67.3,29.93,SSW,209,0.0,0.0,82,0.00,,---,0.00,VWS V14.01,2013-05-23 12:15:00,
2013-05-23 08:20:00,73.2,67.0,29.93,SSW,209,0.0,0.0,81,0.00,,---,0.00,VWS V14.01,2013-05-23 12:20:00,
2013-05-23 08:25:00,73.3,67.1,29.93,SSW,209,0.0,0.0,81,0.00,,---,0.00,VWS V14.01,2013-05-23 12:25:00,
2013-05-23 08:30:00,73.5,67.3,29.93,SSW,209,0.0,0.0,81,0.00,,---,0.00,VWS V14.01,2013-05-23 12:30:00,
2013-05-23 08:35:00,73.5,67.3,29.93,SSW,209,0.0,0.0,81,0.00,,---,0.00,VWS V14.01,2013-05-23 12:35:00,
2013-05-23 08:40:00,73.7,67.5,29.93,SSW,209,0.0,0.0,81,0.00,,---,0.00,VWS V14.01,2013-05-23 12:40:00,
2013-05-23 08:45:00,73.9,67.3,29.93,SSW,209,0.0,0.0,80,0.00,,---,0.00,VWS V14.01,2013-05-23 12:45:00,
2013-05-23 08:50:00,74.0,67.4,29.93,SSW,209,0.0,0.0,80,0.00,,---,0.00,VWS V14.01,2013-05-23 12:50:00,
2013-05-23 08:55:00,74.1,67.5,29.93,WNW,284,0.0,0.0,80,0.00,,---,0.00,VWS V14.01,2013-05-23 12:55:00,
2013-05-23 09:00:00,74.0,67.1,29.92,SW,233,0.0,0.0,79,0.00,,---,0.00,VWS V14.01,2013-05-23 13:00:00,
2013-05-23 09:05:00,74.1,66.8,29.93,SW,231,0.0,0.0,78,0.00,,---,0.00,VWS V14.01,2013-05-23 13:05:00,
2013-05-23 09:10:00,74.3,66.6,29.93,WSW,243,0.0,0.0,77,0.00,,---,0.00,VWS V14.01,2013-05-23 13:10:00,
2013-05-23 09:15:00,74.7,67.0,29.92,WSW,258,0.0,0.0,77,0.00,,---,0.00,VWS V14.01,2013-05-23 13:15:00,
2013-05-23 09:20:00,75.0,66.9,29.93,West,260,0.0,0.0,76,0.00,,---,0.00,VWS V14.01,2013-05-23 13:20:00,
2013-05-23 09:25:00,75.5,66.6,29.92,WSW,254,0.0,0.0,74,0.00,,---,0.00,VWS V14.01,2013-05-23 13:25:00,
2013-05-23 09:30:00,76.0,66.3,29.92,SW,223,0.0,0.0,72,0.00,,---,0.00,VWS V14.01,2013-05-23 13:30:00,
2013-05-23 09:35:00,76.0,65.9,29.92,WSW,238,0.0,0.0,71,0.00,,---,0.00,VWS V14.01,2013-05-23 13:35:00,
2013-05-23 09:40:00,76.1,66.0,29.92,NW,314,0.0,0.0,71,0.00,,---,0.00,VWS V14.01,2013-05-23 13:40:00,
2013-05-23 09:45:00,76.4,66.3,29.92,NW,314,0.0,0.0,71,0.00,,---,0.00,VWS V14.01,2013-05-23 13:45:00,
2013-05-23 09:49:00,77.1,67.0,29.92,SSE,161,0.0,0.0,71,0.00,,---,0.00,VWS V14.01,2013-05-23 13:49:00,
2013-05-23 09:54:00,76.2,66.9,29.92,SSE,153,0.0,0.0,73,0.00,,---,0.00,VWS V14.01,2013-05-23 13:54:00,
2013-05-23 09:59:00,75.1,66.2,29.91,South,169,0.0,0.0,74,0.00,,---,0.00,VWS V14.01,2013-05-23 13:59:00,
2013-05-23 10:00:00,70.7,65.3,29.94,SSW,208,0.0,0.0,83,0.00,,---,0.00,VWS V14.01,2013-05-23 14:00:00,
2013-05-23 10:04:00,75.1,66.6,29.91,South,183,0.0,0.0,75,0.00,,---,0.00,VWS V14.01,2013-05-23 14:04:00,
2013-05-23 10:09:00,74.8,66.7,29.92,South,172,0.0,0.0,76,0.00,,---,0.00,VWS V14.01,2013-05-23 14:09:00,
2013-05-23 10:14:00,75.0,66.9,29.92,SSE,147,0.0,0.0,76,0.00,,---,0.00,VWS V14.01,2013-05-23 14:14:00,
2013-05-23 10:19:00,75.1,67.0,29.91,SSE,163,0.0,0.0,76,0.00,,---,0.00,VWS V14.01,2013-05-23 14:19:00,
2013-05-23 10:24:00,74.9,66.4,29.92,SSE,167,0.0,0.0,75,0.00,,---,0.00,VWS V14.01,2013-05-23 14:24:00,
2013-05-23 10:29:00,75.2,67.1,29.91,SSE,159,0.0,0.0,76,0.00,,---,0.00,VWS V14.01,2013-05-23 14:29:00,
2013-05-23 10:30:00,72.4,67.3,29.93,SSW,207,0.0,0.0,84,0.00,,---,0.00,VWS V14.01,2013-05-23 14:30:00,
2013-05-23 10:34:00,75.1,66.6,29.91,SE,136,0.0,0.0,75,0.00,,---,0.00,VWS V14.01,2013-05-23 14:34:00,
2013-05-23 10:39:00,75.1,66.6,29.91,SSE,164,0.0,0.0,75,0.00,,---,0.00,VWS V14.01,2013-05-23 14:39:00,
2013-05-23 10:44:00,75.3,66.8,29.91,SSE,163,0.0,0.0,75,0.00,,---,0.00,VWS V14.01,2013-05-23 14:44:00,
2013-05-23 10:49:00,75.3,67.2,29.91,South,172,0.0,0.0,76,0.00,,---,0.00,VWS V14.01,2013-05-23 14:49:00,
2013-05-23 10:54:00,75.1,66.6,29.91,South,173,0.0,0.0,75,0.00,,---,0.00,VWS V14.01,2013-05-23 14:54:00,
2013-05-23 10:59:00,75.0,66.9,29.91,SSE,163,0.0,0.0,76,0.00,,---,0.00,VWS V14.01,2013-05-23 14:59:00,
2013-05-23 11:00:00,73.0,67.2,29.93,SSW,209,0.0,0.0,82,0.00,,---,0.00,VWS V14.01,2013-05-23 15:00:00,
2013-05-23 11:04:00,74.9,66.8,29.91,South,171,0.0,0.0,76,0.00,,---,0.00,VWS V14.01,2013-05-23 15:04:00,
2013-05-23 11:09:00,75.5,67.4,29.91,South,176,0.0,0.0,76,0.00,,---,0.00,VWS V14.01,2013-05-23 15:09:00,
2013-05-23 11:14:00,75.7,67.6,29.91,South,170,0.0,0.0,76,0.00,,---,0.00,VWS V14.01,2013-05-23 15:14:00,
2013-05-23 11:19:00,75.5,67.0,29.91,South,169,0.0,0.0,75,0.00,,---,0.00,VWS V14.01,2013-05-23 15:19:00,
2013-05-23 11:24:00,75.3,66.8,29.91,SSE,159,0.0,0.0,75,0.00,,---,0.00,VWS V14.01,2013-05-23 15:24:00,
2013-05-23 11:29:00,75.2,67.1,29.91,South,170,0.0,0.0,76,0.00,,---,0.00,VWS V14.01,2013-05-23 15:29:00,
2013-05-23 11:30:00,73.5,67.3,29.93,SSW,209,0.0,0.0,81,0.00,,---,0.00,VWS V14.01,2013-05-23 15:30:00,
2013-05-23 11:34:00,75.5,67.4,29.91,SSE,167,0.0,0.0,76,0.00,,---,0.00,VWS V14.01,2013-05-23 15:34:00,
2013-05-23 11:39:00,75.7,67.6,29.91,SSW,195,0.0,0.0,76,0.00,,---,0.00,VWS V14.01,2013-05-23 15:39:00,
2013-05-23 11:44:00,75.7,67.2,29.91,South,182,0.0,0.0,75,0.00,,---,0.00,VWS V14.01,2013-05-23 15:44:00,
2013-05-23 11:49:00,75.5,67.0,29.91,South,190,0.0,0.0,75,0.00,,---,0.00,VWS V14.01,2013-05-23 15:49:00,
2013-05-23 11:54:00,75.7,67.6,29.91,SSW,201,0.0,0.0,76,0.00,,---,0.00,VWS V14.01,2013-05-23 15:54:00,
2013-05-23 11:59:00,75.8,67.3,29.92,SSE,166,0.0,0.0,75,0.00,,---,0.00,VWS V14.01,2013-05-23 15:59:00,
2013-05-23 12:00:00,74.0,67.1,29.92,SW,233,0.0,0.0,79,0.00,,---,0.00,VWS V14.01,2013-05-23 16:00:00,
2013-05-23 12:04:00,75.8,67.3,29.92,South,169,0.0,0.0,75,0.00,,---,0.00,VWS V14.01,2013-05-23 16:04:00,
2013-05-23 12:09:00,75.6,67.1,29.91,South,178,0.0,0.0,75,0.00,,---,0.00,VWS V14.01,2013-05-23 16:09:00,
2013-05-23 12:14:00,75.6,67.1,29.91,South,173,0.0,0.0,75,0.00,,---,0.00,VWS V14.01,2013-05-23 16:14:00,
2013-05-23 12:19:00,75.8,67.3,29.91,SSE,163,0.0,0.0,75,0.00,,---,0.00,VWS V14.01,2013-05-23 16:19:00,
2013-05-23 12:24:00,76.1,67.6,29.91,South,178,0.0,0.0,75,0.00,,---,0.00,VWS V14.01,2013-05-23 16:24:00,
2013-05-23 12:29:00,76.3,67.8,29.91,South,175,0.0,0.0,75,0.00,,---,0.00,VWS V14.01,2013-05-23 16:29:00,
2013-05-23 12:30:00,76.0,66.3,29.92,SW,223,0.0,0.0,72,0.00,,---,0.00,VWS V14.01,2013-05-23 16:30:00,
2013-05-23 12:34:00,76.2,67.7,29.90,SSE,162,0.0,0.0,75,0.00,,---,0.00,VWS V14.01,2013-05-23 16:34:00,
2013-05-23 12:39:00,76.2,67.7,29.90,South,170,0.0,0.0,75,0.00,,---,0.00,VWS V14.01,2013-05-23 16:39:00,
2013-05-23 12:44:00,76.4,67.9,29.91,SSE,159,0.0,0.0,75,0.00,,---,0.00,VWS V14.01,2013-05-23 16:44:00,
2013-05-23 12:49:00,76.2,67.7,29.90,South,181,0.0,0.0,75,0.00,,---,0.00,VWS V14.01,2013-05-23 16:49:00,
2013-05-23 12:54:00,76.5,68.0,29.90,South,174,0.0,0.0,75,0.00,,---,0.00,VWS V14.01,2013-05-23 16:54:00,
2013-05-23 12:59:00,76.5,67.6,29.90,SSE,158,0.0,0.0,74,0.00,,---,0.00,VWS V14.01,2013-05-23 16:59:00,
2013-05-23 13:00:00,75.1,66.2,29.91,SE,139,0.0,0.0,74,0.00,,---,0.00,VWS V14.01,2013-05-23 17:00:00,
2013-05-23 13:04:00,76.6,67.7,29.90,SSE,166,0.0,0.0,74,0.00,,---,0.00,VWS V14.01,2013-05-23 17:04:00,
2013-05-23 13:09:00,76.5,67.6,29.89,South,180,0.0,0.0,74,0.00,,---,0.00,VWS V14.01,2013-05-23 17:09:00,
2013-05-23 13:14:00,76.4,67.5,29.89,SSW,207,0.0,0.0,74,0.00,,---,0.00,VWS V14.01,2013-05-23 17:14:00,
2013-05-23 13:19:00,76.0,67.1,29.89,South,178,0.0,0.0,74,0.00,,---,0.00,VWS V14.01,2013-05-23 17:19:00,
2013-05-23 13:24:00,75.8,66.9,29.89,South,180,0.0,0.0,74,0.00,,---,0.00,VWS V14.01,2013-05-23 17:24:00,
2013-05-23 13:29:00,75.7,67.2,29.90,SSW,205,0.0,0.0,75,0.00,,---,0.00,VWS V14.01,2013-05-23 17:29:00,
2013-05-23 13:30:00,75.1,67.0,29.91,SSE,159,0.0,0.0,76,0.00,,---,0.00,VWS V14.01,2013-05-23 17:30:00,
2013-05-23 13:34:00,75.5,67.0,29.90,South,180,0.0,0.0,75,0.00,,---,0.00,VWS V14.01,2013-05-23 17:34:00,
2013-05-23 13:39:00,75.3,66.8,29.91,SSW,206,0.0,0.0,75,0.00,,---,0.00,VWS V14.01,2013-05-23 17:39:00,
2013-05-23 13:44:00,75.1,67.0,29.91,SW,214,0.0,0.0,76,0.02,,---,0.02,VWS V14.01,2013-05-23 17:44:00,
2013-05-23 13:49:00,74.7,66.6,29.90,SSW,197,0.0,0.0,76,0.03,,---,0.03,VWS V14.01,2013-05-23 17:49:00,
2013-05-23 13:54:00,74.5,66.8,29.90,SSW,207,0.0,0.0,77,0.06,,---,0.06,VWS V14.01,2013-05-23 17:54:00,
2013-05-23 13:59:00,74.3,67.0,29.90,SSW,211,0.0,0.0,78,0.06,,---,0.06,VWS V14.01,2013-05-23 17:59:00,
2013-05-23 14:00:00,75.0,66.6,29.91,SSE,165,0.0,0.0,75,0.00,,---,0.00,VWS V14.01,2013-05-23 18:00:00,
2013-05-23 14:04:00,74.1,66.8,29.90,SSW,212,0.0,0.0,78,0.07,,---,0.07,VWS V14.01,2013-05-23 18:04:00,
2013-05-23 14:09:00,73.9,66.6,29.89,SSW,209,0.0,0.0,78,0.09,,---,0.09,VWS V14.01,2013-05-23 18:09:00,
2013-05-23 14:14:00,74.1,67.2,29.88,SSW,195,0.0,0.0,79,0.10,,---,0.10,VWS V14.01,2013-05-23 18:14:00,
2013-05-23 14:19:00,74.2,67.3,29.89,SSW,207,0.0,0.0,79,0.11,,---,0.11,VWS V14.01,2013-05-23 18:19:00,
2013-05-23 14:24:00,74.3,67.4,29.89,SW,217,0.0,0.0,79,0.11,,---,0.11,VWS V14.01,2013-05-23 18:24:00,
2013-05-23 14:29:00,74.8,68.2,29.89,SSW,205,0.0,0.0,80,0.11,,---,0.11,VWS V14.01,2013-05-23 18:29:00,
2013-05-23 14:30:00,75.1,67.0,29.91,South,183,0.0,0.0,76,0.00,,---,0.00,VWS V14.01,2013-05-23 18:30:00,
2013-05-23 14:34:00,74.9,67.9,29.88,SW,217,0.0,0.0,79,0.11,,---,0.11,VWS V14.01,2013-05-23 18:34:00,
2013-05-23 14:39:00,75.2,68.2,29.88,SSW,213,0.0,0.0,79,0.11,,---,0.11,VWS V14.01,2013-05-23 18:39:00,
2013-05-23 14:44:00,75.3,68.0,29.88,SSW,209,0.0,0.0,78,0.11,,---,0.11,VWS V14.01,2013-05-23 18:44:00,
2013-05-23 14:49:00,75.5,68.2,29.88,SSW,198,0.0,0.0,78,0.11,,---,0.11,VWS V14.01,2013-05-23 18:49:00,
2013-05-23 14:54:00,75.4,68.1,29.88,SW,214,0.0,0.0,78,0.11,,---,0.11,VWS V14.01,2013-05-23 18:54:00,
2013-05-23 14:59:00,76.1,68.8,29.87,South,180,0.0,0.0,78,0.11,,---,0.11,VWS V14.01,2013-05-23 18:59:00,
2013-05-23 15:00:00,75.8,67.3,29.92,South,177,0.0,0.0,75,0.00,,---,0.00,VWS V14.01,2013-05-23 19:00:00,
2013-05-23 15:04:00,76.2,68.5,29.87,South,188,0.0,0.0,77,0.05,,---,0.11,VWS V14.01,2013-05-23 19:04:00,
2013-05-23 15:09:00,76.7,68.9,29.88,South,190,0.0,0.0,77,0.05,,---,0.11,VWS V14.01,2013-05-23 19:09:00,
2013-05-23 15:14:00,76.9,69.2,29.87,SSW,198,0.0,0.0,77,0.05,,---,0.11,VWS V14.01,2013-05-23 19:14:00,
2013-05-23 15:19:00,77.1,69.0,29.87,SSW,205,0.0,0.0,76,0.05,,---,0.11,VWS V14.01,2013-05-23 19:19:00,
2013-05-23 15:24:00,76.7,68.2,29.87,South,185,0.0,0.0,75,0.05,,---,0.11,VWS V14.01,2013-05-23 19:24:00,
2013-05-23 15:29:00,76.6,68.1,29.87,South,190,0.0,0.0,75,0.05,,---,0.11,VWS V14.01,2013-05-23 19:29:00,
2013-05-23 15:30:00,76.2,67.7,29.91,South,171,0.0,0.0,75,0.00,,---,0.00,VWS V14.01,2013-05-23 19:30:00,
2013-05-23 15:34:00,76.6,68.1,29.87,SSW,196,0.0,0.0,75,0.00,,---,0.11,VWS V14.01,2013-05-23 19:34:00,
2013-05-23 15:39:00,76.6,67.7,29.87,South,185,0.0,0.0,74,0.00,,---,0.11,VWS V14.01,2013-05-23 19:39:00,
2013-05-23 15:44:00,76.6,68.1,29.86,SSW,207,0.0,0.0,75,0.00,,---,0.11,VWS V14.01,2013-05-23 19:44:00,
2013-05-23 15:49:00,76.6,68.1,29.86,South,184,0.0,0.0,75,0.00,,---,0.11,VWS V14.01,2013-05-23 19:49:00,
2013-05-23 15:54:00,76.4,67.9,29.86,SSW,200,0.0,0.0,75,0.00,,---,0.11,VWS V14.01,2013-05-23 19:54:00,
2013-05-23 15:59:00,76.2,67.7,29.86,SSW,193,0.0,0.0,75,0.00,,---,0.11,VWS V14.01,2013-05-23 19:59:00,
2013-05-23 16:00:00,76.5,67.6,29.90,South,179,0.0,0.0,74,0.00,,---,0.00,VWS V14.01,2013-05-23 20:00:00,
2013-05-23 16:04:00,76.8,68.7,29.85,SSW,207,0.0,0.0,76,0.00,,---,0.11,VWS V14.01,2013-05-23 20:04:00,
2013-05-23 16:09:00,76.7,67.8,29.85,SSW,211,0.0,0.0,74,0.00,,---,0.11,VWS V14.01,2013-05-23 20:09:00,
2013-05-23 16:14:00,76.9,68.0,29.86,SSW,211,0.0,0.0,74,0.00,,---,0.11,VWS V14.01,2013-05-23 20:14:00,
2013-05-23 16:19:00,76.9,67.6,29.85,South,179,0.0,0.0,73,0.00,,---,0.11,VWS V14.01,2013-05-23 20:19:00,
2013-05-23 16:24:00,76.8,67.5,29.86,SSW,194,0.0,0.0,73,0.00,,---,0.11,VWS V14.01,2013-05-23 20:24:00,
2013-05-23 16:29:00,76.6,67.7,29.85,SSW,192,0.0,0.0,74,0.00,,---,0.11,VWS V14.01,2013-05-23 20:29:00,
2013-05-23 16:30:00,75.6,67.1,29.90,South,183,0.0,0.0,75,0.00,,---,0.00,VWS V14.01,2013-05-23 20:30:00,
2013-05-23 16:34:00,76.5,67.6,29.85,SSW,211,0.0,0.0,74,0.00,,---,0.11,VWS V14.01,2013-05-23 20:34:00,
2013-05-23 16:39:00,76.8,67.9,29.85,SSW,206,0.0,0.0,74,0.00,,---,0.11,VWS V14.01,2013-05-23 20:39:00,
2013-05-23 16:44:00,77.0,68.1,29.85,SSW,199,0.0,0.0,74,0.00,,---,0.11,VWS V14.01,2013-05-23 20:44:00,
2013-05-23 16:49:00,76.9,67.6,29.84,SSW,204,0.0,0.0,73,0.00,,---,0.11,VWS V14.01,2013-05-23 20:49:00,
2013-05-23 16:54:00,76.9,68.0,29.84,South,178,0.0,0.0,74,0.00,,---,0.11,VWS V14.01,2013-05-23 20:54:00,
2013-05-23 16:59:00,77.1,67.8,29.83,SSW,192,0.0,0.0,73,0.00,,---,0.11,VWS V14.01,2013-05-23 20:59:00,
2013-05-23 17:00:00,74.3,67.0,29.90,SSW,209,0.0,0.0,78,0.06,,---,0.06,VWS V14.01,2013-05-23 21:00:00,
2013-05-23 17:04:00,77.1,67.8,29.83,South,187,0.0,0.0,73,0.00,,---,0.11,VWS V14.01,2013-05-23 21:04:00,
2013-05-23 17:09:00,77.0,67.7,29.83,SW,217,0.0,0.0,73,0.00,,---,0.11,VWS V14.01,2013-05-23 21:09:00,
2013-05-23 17:14:00,77.0,67.3,29.83,SSW,199,0.0,0.0,72,0.00,,---,0.11,VWS V14.01,2013-05-23 21:14:00,
2013-05-23 17:19:00,77.2,67.9,29.83,SW,220,0.0,0.0,73,0.00,,---,0.11,VWS V14.01,2013-05-23 21:19:00,
2013-05-23 17:23:00,77.2,67.5,29.83,SSW,198,0.0,0.0,72,0.00,,---,0.11,VWS V14.01,2013-05-23 21:23:00,
2013-05-23 17:28:00,76.9,67.6,29.83,South,183,0.0,0.0,73,0.00,,---,0.11,VWS V14.01,2013-05-23 21:28:00,
2013-05-23 17:30:00,74.9,68.3,29.89,South,184,0.0,0.0,80,0.11,,---,0.11,VWS V14.01,2013-05-23 21:30:00,
2013-05-23 17:33:00,77.0,68.1,29.83,SW,216,0.0,0.0,74,0.00,,---,0.11,VWS V14.01,2013-05-23 21:33:00,
2013-05-23 17:38:00,76.9,67.6,29.83,SSW,210,0.0,0.0,73,0.00,,---,0.11,VWS V14.01,2013-05-23 21:38:00,
2013-05-23 17:43:00,76.8,67.5,29.83,SSW,207,0.0,0.0,73,0.00,,---,0.11,VWS V14.01,2013-05-23 21:43:00,
2013-05-23 17:48:00,77.0,68.1,29.83,SW,219,0.0,0.0,74,0.00,,---,0.11,VWS V14.01,2013-05-23 21:48:00,
2013-05-23 17:53:00,76.9,67.6,29.83,SW,216,0.0,0.0,73,0.00,,---,0.11,VWS V14.01,2013-05-23 21:53:00,
2013-05-23 17:58:00,76.7,67.4,29.83,SSW,194,0.0,0.0,73,0.00,,---,0.11,VWS V14.01,2013-05-23 21:58:00,
2013-05-23 18:00:00,76.3,68.9,29.87,SSW,205,0.0,0.0,78,0.11,,---,0.11,VWS V14.01,2013-05-23 22:00:00,
2013-05-23 18:03:00,76.5,67.6,29.83,SSW,205,0.0,0.0,74,0.00,,---,0.11,VWS V14.01,2013-05-23 22:03:00,
2013-05-23 18:08:00,76.3,67.4,29.83,SSW,209,0.0,0.0,74,0.00,,---,0.11,VWS V14.01,2013-05-23 22:08:00,
2013-05-23 18:13:00,76.3,67.4,29.83,SSW,197,0.0,0.0,74,0.00,,---,0.11,VWS V14.01,2013-05-23 22:13:00,
2013-05-23 18:18:00,76.3,67.4,29.84,SSW,204,0.0,0.0,74,0.00,,---,0.11,VWS V14.01,2013-05-23 22:18:00,
2013-05-23 18:23:00,76.2,67.7,29.84,SSW,209,0.0,0.0,75,0.00,,---,0.11,VWS V14.01,2013-05-23 22:23:00,
2013-05-23 18:28:00,76.0,67.1,29.83,SSW,205,0.0,0.0,74,0.00,,---,0.11,VWS V14.01,2013-05-23 22:28:00,
2013-05-23 18:30:00,76.6,68.1,29.87,South,184,0.0,0.0,75,0.05,,---,0.11,VWS V14.01,2013-05-23 22:30:00,
2013-05-23 18:33:00,75.8,66.9,29.83,SW,215,0.0,0.0,74,0.00,,---,0.11,VWS V14.01,2013-05-23 22:33:00,
2013-05-23 18:38:00,76.0,67.1,29.83,SW,221,0.0,0.0,74,0.00,,---,0.11,VWS V14.01,2013-05-23 22:38:00,
2013-05-23 18:43:00,76.0,67.1,29.83,SW,224,0.0,0.0,74,0.00,,---,0.11,VWS V14.01,2013-05-23 22:43:00,
2013-05-23 18:48:00,76.1,67.2,29.83,SSW,213,0.0,0.0,74,0.00,,---,0.11,VWS V14.01,2013-05-23 22:48:00,
2013-05-23 18:53:00,76.0,67.1,29.83,SSW,213,0.0,0.0,74,0.00,,---,0.11,VWS V14.01,2013-05-23 22:53:00,
2013-05-23 18:58:00,75.8,66.9,29.82,SW,215,0.0,0.0,74,0.00,,---,0.11,VWS V14.01,2013-05-23 22:58:00,
2013-05-23 19:00:00,76.2,67.7,29.86,SSW,211,0.0,0.0,75,0.00,,---,0.11,VWS V14.01,2013-05-23 23:00:00,
2013-05-23 19:03:00,75.7,67.2,29.82,SSW,211,0.0,0.0,75,0.00,,---,0.11,VWS V14.01,2013-05-23 23:03:00,
2013-05-23 19:08:00,75.5,67.0,29.82,SSW,202,0.0,0.0,75,0.00,,---,0.11,VWS V14.01,2013-05-23 23:08:00,
2013-05-23 19:13:00,75.8,67.3,29.82,SW,226,4.0,4.0,75,0.00,,---,0.11,VWS V14.01,2013-05-23 23:13:00,
2013-05-23 19:18:00,75.5,72.4,29.83,WSW,256,4.0,6.0,90,0.00,,---,0.11,VWS V14.01,2013-05-23 23:18:00,
2013-05-23 19:23:00,75.3,72.5,29.83,SSW,210,4.0,9.0,91,0.00,,---,0.11,VWS V14.01,2013-05-23 23:23:00,
2013-05-23 19:28:00,75.2,72.4,29.83,WSW,250,2.0,9.0,91,0.00,,---,0.11,VWS V14.01,2013-05-23 23:28:00,
2013-05-23 19:30:00,76.6,67.7,29.85,SSW,204,0.0,0.0,74,0.00,,---,0.11,VWS V14.01,2013-05-23 23:30:00,
2013-05-23 19:33:00,75.1,72.3,29.83,WSW,251,2.0,4.0,91,0.00,,---,0.11,VWS V14.01,2013-05-23 23:33:00,
2013-05-23 19:38:00,75.1,72.6,29.83,SW,223,3.0,7.0,92,0.00,,---,0.11,VWS V14.01,2013-05-23 23:38:00,
2013-05-23 19:43:00,75.0,72.5,29.84,WSW,244,3.0,7.0,92,0.00,,---,0.11,VWS V14.01,2013-05-23 23:43:00,
2013-05-23 19:48:00,75.1,72.6,29.85,West,275,3.0,7.0,92,0.00,,---,0.11,VWS V14.01,2013-05-23 23:48:00,
2013-05-23 19:53:00,75.2,73.0,29.86,WSW,250,5.0,7.0,93,0.00,,---,0.11,VWS V14.01,2013-05-23 23:53:00,
2013-05-23 19:58:00,73.5,64.3,29.86,WSW,253,0.0,7.0,73,0.04,,---,0.15,VWS V14.01,2013-05-23 23:58:00,
2013-05-23 20:00:00,77.1,67.4,29.83,SSW,210,0.0,0.0,72,0.00,,---,0.11,VWS V14.01,2013-05-24 00:00:00,
2013-05-23 20:03:00,72.0,63.3,29.87,WNW,294,0.0,0.0,74,0.06,,---,0.17,VWS V14.01,2013-05-24 00:03:00,
2013-05-23 20:08:00,71.0,62.7,29.87,NNW,344,0.0,0.0,75,0.10,,---,0.21,VWS V14.01,2013-05-24 00:08:00,
2013-05-23 20:13:00,70.3,62.4,29.87,NNW,329,0.0,0.0,76,0.10,,---,0.21,VWS V14.01,2013-05-24 00:13:00,
2013-05-23 20:18:00,69.7,61.8,29.86,NNW,337,0.0,0.0,76,0.11,,---,0.22,VWS V14.01,2013-05-24 00:18:00,
2013-05-23 20:23:00,69.5,62.0,29.86,NNW,337,0.0,0.0,77,0.11,,---,0.22,VWS V14.01,2013-05-24 00:23:00,
2013-05-23 20:28:00,69.4,62.2,29.86,NNW,329,0.0,0.0,78,0.12,,---,0.23,VWS V14.01,2013-05-24 00:28:00,
2013-05-23 20:30:00,76.8,67.5,29.82,South,190,0.0,0.0,73,0.00,,---,0.11,VWS V14.01,2013-05-24 00:30:00,
2013-05-23 20:33:00,69.2,62.1,29.86,NNW,329,0.0,0.0,78,0.12,,---,0.23,VWS V14.01,2013-05-24 00:33:00,
2013-05-23 20:38:00,69.1,62.0,29.86,NW,315,0.0,0.0,78,0.12,,---,0.23,VWS V14.01,2013-05-24 00:38:00,
2013-05-23 20:43:00,69.1,62.0,29.85,WNW,284,0.0,0.0,78,0.12,,---,0.23,VWS V14.01,2013-05-24 00:43:00,
2013-05-23 20:48:00,69.3,62.5,29.85,SSW,198,0.0,0.0,79,0.12,,---,0.23,VWS V14.01,2013-05-24 00:48:00,
2013-05-23 20:53:00,69.4,62.6,29.85,SSW,205,0.0,0.0,79,0.12,,---,0.23,VWS V14.01,2013-05-24 00:53:00,
2013-05-23 20:58:00,69.4,62.6,29.85,SSW,206,0.0,0.0,79,0.12,,---,0.23,VWS V14.01,2013-05-24 00:58:00,
2013-05-23 21:00:00,76.6,67.7,29.83,SSW,211,0.0,0.0,74,0.00,,---,0.11,VWS V14.01,2013-05-24 01:00:00,
2013-05-23 21:03:00,69.3,62.5,29.86,SSW,206,0.0,0.0,79,0.07,,---,0.23,VWS V14.01,2013-05-24 01:03:00,
2013-05-23 21:08:00,69.4,63.0,29.86,SSW,205,0.0,0.0,80,0.07,,---,0.23,VWS V14.01,2013-05-24 01:08:00,
2013-05-23 21:13:00,69.6,63.2,29.86,SSW,205,0.0,0.0,80,0.07,,---,0.23,VWS V14.01,2013-05-24 01:13:00,
2013-05-23 21:18:00,69.7,63.3,29.85,SSW,205,0.0,0.0,80,0.07,,---,0.23,VWS V14.01,2013-05-24 01:18:00,
2013-05-23 21:23:00,69.7,63.3,29.86,SSW,206,0.0,0.0,80,0.07,,---,0.23,VWS V14.01,2013-05-24 01:23:00,
2013-05-23 21:28:00,69.6,63.2,29.86,SW,224,0.0,0.0,80,0.07,,---,0.23,VWS V14.01,2013-05-24 01:28:00,
2013-05-23 21:30:00,75.9,67.0,29.83,SSW,210,0.0,0.0,74,0.00,,---,0.11,VWS V14.01,2013-05-24 01:30:00,
2013-05-23 21:33:00,69.8,63.4,29.86,SSW,207,0.0,0.0,80,0.00,,---,0.23,VWS V14.01,2013-05-24 01:33:00,
2013-05-23 21:38:00,70.0,63.5,29.86,SSW,212,0.0,0.0,80,0.00,,---,0.23,VWS V14.01,2013-05-24 01:38:00,
2013-05-23 21:43:00,70.1,63.7,29.86,SSW,207,0.0,0.0,80,0.00,,---,0.23,VWS V14.01,2013-05-24 01:43:00,
2013-05-23 21:48:00,70.3,63.8,29.86,SSW,204,0.0,0.0,80,0.00,,---,0.23,VWS V14.01,2013-05-24 01:48:00,
2013-05-23 21:53:00,70.2,63.4,29.86,SSW,205,0.0,0.0,79,0.00,,---,0.23,VWS V14.01,2013-05-24 01:53:00,
2013-05-23 21:58:00,70.2,63.4,29.86,SSW,205,0.0,0.0,79,0.00,,---,0.23,VWS V14.01,2013-05-24 01:58:00,
2013-05-23 22:00:00,75.8,66.9,29.82,SSW,212,0.0,0.0,74,0.00,,---,0.11,VWS V14.01,2013-05-24 02:00:00,
2013-05-23 22:03:00,70.4,63.9,29.86,SSW,206,0.0,0.0,80,0.00,,---,0.23,VWS V14.01,2013-05-24 02:03:00,
2013-05-23 22:08:00,70.4,63.9,29.86,SW,224,0.0,0.0,80,0.00,,---,0.23,VWS V14.01,2013-05-24 02:08:00,
2013-05-23 22:13:00,70.4,63.9,29.86,SW,223,0.0,0.0,80,0.00,,---,0.23,VWS V14.01,2013-05-24 02:13:00,
2013-05-23 22:18:00,70.3,63.5,29.86,SW,223,0.0,0.0,79,0.00,,---,0.23,VWS V14.01,2013-05-24 02:18:00,
2013-05-23 22:23:00,70.3,63.8,29.85,SW,224,0.0,0.0,80,0.00,,---,0.23,VWS V14.01,2013-05-24 02:23:00,
2013-05-23 22:28:00,70.1,63.7,29.85,SW,215,0.0,0.0,80,0.00,,---,0.23,VWS V14.01,2013-05-24 02:28:00,
2013-05-23 22:30:00,75.2,72.4,29.83,WSW,252,2.0,9.0,91,0.00,,---,0.11,VWS V14.01,2013-05-24 02:30:00,
2013-05-23 22:33:00,70.2,63.4,29.85,SW,216,0.0,0.0,79,0.00,,---,0.23,VWS V14.01,2013-05-24 02:33:00,
2013-05-23 22:38:00,70.1,63.3,29.85,SW,217,0.0,0.0,79,0.00,,---,0.23,VWS V14.01,2013-05-24 02:38:00,
2013-05-23 22:43:00,70.3,63.8,29.85,SW,217,0.0,0.0,80,0.00,,---,0.23,VWS V14.01,2013-05-24 02:43:00,
2013-05-23 22:48:00,70.3,63.8,29.85,SW,217,0.0,0.0,80,0.00,,---,0.23,VWS V14.01,2013-05-24 02:48:00,
2013-05-23 22:53:00,70.3,63.8,29.85,SW,217,0.0,0.0,80,0.00,,---,0.23,VWS V14.01,2013-05-24 02:53:00,
2013-05-23 22:58:00,70.3,63.8,29.85,SW,217,0.0,0.0,80,0.00,,---,0.23,VWS V14.01,2013-05-24 02:58:00,
2013-05-23 23:00:00,73.1,63.9,29.86,West,271,0.0,7.0,73,0.05,,---,0.16,VWS V14.01,2013-05-24 03:00:00,
2013-05-23 23:03:00,70.5,64.0,29.85,SW,225,0.0,0.0,80,0.00,,---,0.23,VWS V14.01,2013-05-24 03:03:00,
2013-05-23 23:08:00,70.6,64.1,29.85,SW,227,0.0,0.0,80,0.00,,---,0.23,VWS V14.01,2013-05-24 03:08:00,
2013-05-23 23:13:00,70.7,64.2,29.85,SW,228,0.0,0.0,80,0.00,,---,0.23,VWS V14.01,2013-05-24 03:13:00,
2013-05-23 23:18:00,70.8,64.3,29.85,SW,229,0.0,0.0,80,0.00,,---,0.23,VWS V14.01,2013-05-24 03:18:00,
2013-05-23 23:23:00,71.0,64.5,29.85,SW,230,0.0,0.0,80,0.00,,---,0.23,VWS V14.01,2013-05-24 03:23:00,
2013-05-23 23:28:00,71.1,64.6,29.85,SW,234,0.0,0.0,80,0.00,,---,0.23,VWS V14.01,2013-05-24 03:28:00,
2013-05-23 23:30:00,69.3,62.2,29.86,NNW,329,0.0,0.0,78,0.12,,---,0.23,VWS V14.01,2013-05-24 03:30:00,
2013-05-23 23:33:00,71.0,64.5,29.85,SW,235,0.0,0.0,80,0.00,,---,0.23,VWS V14.01,2013-05-24 03:33:00,
2013-05-23 23:38:00,70.9,64.4,29.85,SW,236,0.0,0.0,80,0.00,,---,0.23,VWS V14.01,2013-05-24 03:38:00,
2013-05-23 23:43:00,70.8,64.3,29.85,SW,236,0.0,0.0,80,0.00,,---,0.23,VWS V14.01,2013-05-24 03:43:00,
2013-05-23 23:48:00,70.7,64.2,29.85,SW,236,0.0,0.0,80,0.00,,---,0.23,VWS V14.01,2013-05-24 03:48:00,
2013-05-23 23:53:00,70.5,64.4,29.85,SW,236,0.0,0.0,81,0.00,,---,0.23,VWS V14.01,2013-05-24 03:53:00,
2013-05-23 23:58:00,70.4,64.3,29.84,WSW,243,0.0,0.0,81,0.00,,---,0.23,VWS V14.01,2013-05-24 03:58:00,